EW7598 Weather Reports


Display with metric or nautical units.
time (UTC)temp
F
wind
direction
speed
MPH
gust
MPH
rain 1hr
in
rain 24hr
in
rain mn
in
humidity
%
barometer
mb
20260502233032 52 207 0.0 0.0 0.00 0.00 0.00 61 1012.7
20260502231530 53 207 0.0 0.0 0.00 0.00 0.00 55 1012.4
20260502230034 55 207 0.0 0.0 0.00 0.00 0.00 53 1012.4
20260502224529 55 207 0.0 1.0 0.00 0.00 0.00 52 1012.2
20260502223032 56 195 0.0 2.0 0.00 0.00 0.00 50 1012.2
20260502221528 57 195 0.0 2.0 0.00 0.00 0.00 50 1011.8
20260502220034 57 272 0.0 1.0 0.00 0.00 0.00 48 1011.7
20260502214527 57 187 0.0 2.0 0.00 0.00 0.00 49 1011.8
20260502213027 57 184 0.0 1.0 0.00 0.00 0.00 49 1011.7
20260502211526 57 205 0.0 3.0 0.00 0.00 0.00 46 1011.6
20260502210025 57 146 0.0 3.0 0.00 0.00 0.00 49 1011.7
20260502204523 57 332 1.0 4.0 0.00 0.00 0.00 50 1011.8
20260502203025 56 215 0.0 2.0 0.00 0.00 0.00 50 1011.8
20260502201525 56 355 0.0 3.0 0.00 0.00 0.00 50 1011.9
20260502200017 55 11 0.0 5.0 0.00 0.00 0.00 51 1012.2
20260502194515 55 222 0.0 4.0 0.00 0.00 0.00 51 1012.5
20260502193015 55 177 0.0 2.0 0.00 0.00 0.00 53 1012.7
20260502191513 54 336 0.0 4.0 0.00 0.00 0.00 54 1012.8
20260502190013 54 333 0.0 4.0 0.00 0.00 0.00 53 1012.8
20260502184512 54 11 1.0 4.0 0.00 0.00 0.00 53 1012.8
20260502183014 54 44 0.0 6.0 0.00 0.00 0.00 52 1012.6
20260502181511 55 8 1.0 8.0 0.00 0.00 0.00 51 1013.0
20260502163100 54 349 4.0 11.0 0.00 0.00 0.00 50 1013.5
20260502161558 53 275 0.0 8.0 0.00 0.00 0.00 54 1014.1
20260502151603 53 252 0.0 7.0 0.00 0.00 0.00 57 1014.5
20260502150104 53 11 1.0 5.0 0.00 0.00 0.00 59 1014.1
20260502123053 52 129 1.0 4.0 0.00 0.00 0.00 79 1013.2
20260502121535 52 31 0.0 2.0 0.00 0.00 0.00 79 1013.4
20260502114536 52 333 0.0 2.0 0.00 0.00 0.00 80 1013.1
20260502113041 52 347 0.0 2.0 0.00 0.00 0.00 80 1013.0
20260502111534 52 311 0.0 1.0 0.00 0.00 0.00 80 1013.0
20260502110033 52 25 0.0 4.0 0.00 0.00 0.00 79 1012.8
20260502104538 52 316 0.0 3.0 0.00 0.00 0.00 80 1012.7
20260502103030 51 345 0.0 4.0 0.00 0.00 0.00 83 1012.8
20260502101529 51 20 0.0 2.0 0.00 0.00 0.00 84 1013.0
20260502091528 51 356 0.0 0.0 0.00 0.00 0.00 82 1013.4
20260502071515 50 356 0.0 0.0 0.00 0.00 0.00 81 1012.2
20260502070015 50 356 0.0 0.0 0.00 0.00 0.00 81 1012.3
20260502064514 50 356 0.0 1.0 0.00 0.00 0.00 81 1012.4
20260502063013 49 356 0.0 4.0 0.00 0.00 0.00 81 1012.6
20260502061513 49 165 0.0 0.0 0.00 0.00 0.00 82 1012.4
20260502060011 50 165 0.0 0.0 0.00 0.00 0.00 82 1012.3
20260502054511 50 165 0.0 0.0 0.00 0.00 0.00 82 1012.4
20260502053010 50 165 0.0 0.0 0.00 0.00 0.00 82 1012.3
20260502051520 50 165 0.0 0.0 0.00 0.00 0.00 82 1012.6
20260502050006 50 165 0.0 0.0 0.00 0.00 0.00 83 1012.6
20260502044506 50 165 0.0 0.0 0.00 0.00 0.00 83 1012.8
20260502043005 50 165 0.0 0.0 0.00 0.00 0.00 83 1012.7
20260502041502 50 165 0.0 0.0 0.00 0.00 0.00 83 1012.8
20260502040100 50 165 0.0 0.0 0.00 0.00 0.00 84 1012.9
20260502034559 51 165 0.0 0.0 0.00 0.00 0.00 84 1012.9
20260502033105 51 165 0.0 0.0 0.00 0.00 0.00 84 1013.0
20260502031602 51 165 0.0 0.0 0.00 0.00 0.00 83 1013.2
20260502030101 51 165 0.0 0.0 0.00 0.00 0.00 83 1013.1
20260502024557 52 165 0.0 0.0 0.00 0.00 0.00 83 1013.1
20260502023110 52 165 0.0 0.0 0.00 0.00 0.00 83 1013.1
20260502021558 52 165 0.0 0.0 0.00 0.00 0.00 83 1013.0
20260502020056 52 165 0.0 0.0 0.00 0.00 0.00 83 1013.2
20260502014554 52 165 0.0 0.0 0.00 0.00 0.00 82 1013.2
20260502013054 53 165 0.0 0.0 0.00 0.00 0.00 81 1013.1
20260502011558 54 165 0.0 0.0 0.00 0.00 0.00 81 1013.1
20260502010052 54 165 0.0 2.0 0.00 0.00 0.00 81 1012.8
20260502004608 54 168 0.0 2.0 0.00 0.00 0.00 81 1012.6
20260502003051 55 166 1.0 3.0 0.00 0.00 0.00 80 1012.2
20260502001550 55 189 0.0 2.0 0.00 0.00 0.00 79 1012.1
20260502000050 56 169 0.0 2.0 0.00 0.00 0.00 77 1011.7
20260501234548 57 196 1.0 4.0 0.00 0.00 0.00 75 1011.9